TimeEDT,TemperatureF,Dew PointF,Humidity,Sea Level PressureIn,VisibilityMPH,Wind Direction,Wind SpeedMPH,Gust SpeedMPH,PrecipitationIn,Events,Conditions,WindDirDegrees,DateUTC
12:53 AM,42.1,39.0,89,30.17,10.0,SSE,3.5,-,N/A,,Clear,150,2012-10-09 04:53:00
1:53 AM,39.9,37.0,89,30.17,10.0,Calm,Calm,-,N/A,,Clear,0,2012-10-09 05:53:00
2:53 AM,37.0,35.1,93,30.17,10.0,Calm,Calm,-,N/A,,Clear,0,2012-10-09 06:53:00
4:22 AM,35.6,33.8,93,30.15,1.8,Calm,Calm,-,N/A,,Clear,0,2012-10-09 08:22:00
4:25 AM,35.6,33.8,93,30.15,1.0,Calm,Calm,-,N/A,,Mist,0,2012-10-09 08:25:00
4:32 AM,35.6,33.8,93,30.15,0.8,Calm,Calm,-,N/A,,Mist,0,2012-10-09 08:32:00
4:35 AM,35.6,33.8,93,30.15,1.2,Calm,Calm,-,N/A,,Scattered Clouds,0,2012-10-09 08:35:00
4:38 AM,35.6,33.8,93,30.15,3.0,Calm,Calm,-,N/A,,Partly Cloudy,0,2012-10-09 08:38:00
4:53 AM,35.1,34.0,96,30.16,7.0,Calm,Calm,-,N/A,,Partly Cloudy,0,2012-10-09 08:53:00
5:21 AM,35.6,33.8,93,30.15,1.5,Calm,Calm,-,N/A,,Partly Cloudy,0,2012-10-09 09:21:00
5:23 AM,35.6,33.8,93,30.15,0.8,Calm,Calm,-,N/A,,Mist,0,2012-10-09 09:23:00
5:53 AM,35.1,34.0,96,30.17,0.5,Calm,Calm,-,N/A,Fog,Fog,0,2012-10-09 09:53:00
6:24 AM,33.8,32.0,93,30.17,1.2,Calm,Calm,-,N/A,,Scattered Clouds,0,2012-10-09 10:24:00
6:32 AM,33.8,33.8,100,30.17,2.5,Calm,Calm,-,N/A,,Partly Cloudy,0,2012-10-09 10:32:00
6:41 AM,35.6,33.8,93,30.17,1.0,Calm,Calm,-,N/A,,Mist,0,2012-10-09 10:41:00
6:49 AM,35.6,33.8,93,30.17,1.2,Calm,Calm,-,N/A,,Clear,0,2012-10-09 10:49:00
6:53 AM,34.0,34.0,100,30.18,2.5,SE,3.5,-,N/A,,Partly Cloudy,130,2012-10-09 10:53:00
7:00 AM,33.8,33.8,100,30.17,1.0,SE,3.5,-,N/A,,Mist,130,2012-10-09 11:00:00
7:08 AM,33.8,33.8,100,30.17,0.5,Calm,Calm,-,N/A,Fog,Fog,0,2012-10-09 11:08:00
7:53 AM,34.0,33.1,96,30.18,0.2,Calm,Calm,-,N/A,Fog,Fog,0,2012-10-09 11:53:00
8:53 AM,37.0,37.0,100,30.19,0.2,SE,3.5,-,N/A,Fog,Fog,140,2012-10-09 12:53:00
9:17 AM,39.2,39.2,100,30.18,1.2,Calm,Calm,-,N/A,,Mostly Cloudy,0,2012-10-09 13:17:00
9:22 AM,39.2,39.2,100,30.18,3.0,SE,3.5,-,N/A,,Mostly Cloudy,140,2012-10-09 13:22:00
9:33 AM,41.0,41.0,100,30.18,5.0,Calm,Calm,-,N/A,,Scattered Clouds,0,2012-10-09 13:33:00
9:53 AM,43.0,42.1,97,30.19,10.0,Calm,Calm,-,N/A,,Clear,0,2012-10-09 13:53:00
10:53 AM,53.1,43.0,69,30.18,10.0,South,6.9,-,N/A,,Clear,190,2012-10-09 14:53:00
11:53 AM,55.0,42.1,62,30.17,10.0,South,5.8,-,N/A,,Clear,170,2012-10-09 15:53:00
12:53 PM,57.9,42.1,56,30.14,10.0,South,3.5,-,N/A,,Clear,170,2012-10-09 16:53:00
1:53 PM,59.0,41.0,51,30.11,10.0,Variable,4.6,-,N/A,,Clear,0,2012-10-09 17:53:00
2:53 PM,61.0,42.1,50,30.08,10.0,South,4.6,-,N/A,,Clear,170,2012-10-09 18:53:00
3:53 PM,61.0,41.0,48,30.05,10.0,SSE,6.9,-,N/A,,Clear,150,2012-10-09 19:53:00
4:53 PM,61.0,39.9,46,30.03,10.0,Variable,5.8,17.3,N/A,,Clear,0,2012-10-09 20:53:00
5:53 PM,60.1,39.9,47,30.02,10.0,SE,10.4,-,N/A,,Clear,140,2012-10-09 21:53:00
6:53 PM,57.0,41.0,55,30.02,10.0,SSE,8.1,-,N/A,,Clear,150,2012-10-09 22:53:00
7:53 PM,51.1,41.0,68,30.03,10.0,South,3.5,-,N/A,,Clear,190,2012-10-09 23:53:00
8:53 PM,46.9,39.9,77,30.03,10.0,SSW,4.6,-,N/A,,Clear,200,2012-10-10 00:53:00
9:53 PM,50.0,39.9,68,30.02,10.0,South,4.6,-,N/A,,Clear,170,2012-10-10 01:53:00
10:53 PM,48.0,41.0,77,30.01,10.0,SSE,5.8,-,N/A,,Clear,150,2012-10-10 02:53:00
11:53 PM,48.9,43.0,80,30.00,10.0,South,6.9,-,N/A,,Clear,170,2012-10-10 03:53:00